Wind_Speed
10 10 10 11 12 13 14 16 17 18 19 20 21 21 21 21 22 23 23 22 20 20 19 20 20 19 18 16 14 13 13 14 14 15 16 17 18 19 19 20 20 19 19 18 18 18 18 17 16
9 9 9 10 10 11 13 15 16 17 18 20 21 21 22 23 23 23 23 22 21 21 21 21 20 18 17 16 15 15 16 16 17 18 19 19 20 21 21 22 22 22 21 20 20 20 19 17 16
9 9 9 10 10 12 13 15 16 18 19 19 19 20 21 21 22 23 23 22 22 23 22 22 19 18 17 17 18 19 19 19 19 21 22 22 22 23 23 23 23 23 22 21 21 21 20 17 15
6 7 8 10 12 13 15 16 17 18 18 18 17 17 19 20 21 23 23 23 24 23 22 21 20 19 20 21 22 23 23 23 23 23 24 24 25 25 25 24 24 24 24 23 22 21 19 17 14
7 7 7 9 11 12 13 14 15 16 16 16 16 17 19 20 22 23 24 24 23 22 21 21 21 22 23 24 25 25 26 26 26 26 26 26 26 26 25 25 25 25 24 23 22 21 19 17 15
10 11 10 11 12 12 13 14 16 17 17 17 17 18 19 20 21 21 22 22 22 22 23 23 24 25 25 26 27 27 27 27 28 28 28 28 28 27 27 27 26 26 24 23 22 21 20 18 17
12 12 13 14 14 14 14 15 16 17 17 17 17 17 19 20 20 22 23 24 24 24 25 26 27 28 28 28 28 29 29 29 29 28 28 28 28 27 27 27 27 25 24 23 23 22 21 20 19
15 15 17 17 17 16 16 17 18 19 19 20 20 20 21 22 23 24 25 25 26 26 27 28 28 29 29 29 29 28 28 28 28 28 28 27 27 27 26 26 25 25 24 24 24 24 23 23 23
16 17 19 19 18 18 18 19 20 21 21 22 23 24 24 24 24 25 25 26 27 27 28 28 28 28 28 27 27 27 26 26 26 27 27 27 27 27 27 27 27 27 26 26 27 27 27 28 28
16 18 19 18 18 18 19 20 20 19 20 23 24 24 23 23 23 23 24 25 26 26 26 26 25 25 26 26 25 25 25 25 26 27 28 28 29 29 30 30 30 31 31 31 31 32 32 33 33
15 17 17 17 17 18 19 19 19 18 19 23 21 21 21 21 21 21 22 23 24 25 25 25 25 26 27 27 28 28 28 29 30 31 32 32 33 34 34 35 35 36 36 37 37 38 38 39 39
15 17 18 19 18 17 18 18 18 18 20 20 19 20 21 22 22 22 23 25 25 26 26 27 27 28 29 30 31 32 33 34 35 36 37 37 38 39 40 40 41 41 42 42 43 44 44 44 45
13 15 16 17 17 16 15 16 17 19 21 21 22 23 23 24 24 24 25 26 26 26 27 27 28 29 30 32 33 34 34 36 37 38 38 39 40 41 42 42 43 44 45 46 47 48 49 49 50
13 14 16 17 16 15 15 16 19 21 24 26 26 26 26 26 26 26 26 26 26 27 28 30 32 33 35 36 37 38 39 40 40 41 42 42 42 42 43 43 44 44 44 45 47 49 51 52 53
16 17 19 20 20 19 19 20 24 25 27 28 29 28 27 27 27 28 29 29 29 30 32 34 36 38 40 41 43 44 45 45 46 46 47 47 47 47 47 47 47 47 47 47 48 49 51 53 54
21 21 22 24 24 23 21 20 28 30 28 29 30 29 29 29 29 30 31 32 34 35 38 40 42 44 45 47 48 49 49 50 50 51 51 52 52 52 52 51 51 51 50 50 50 50 51 53 54
23 23 24 27 26 25 24 20 26 30 28 26 27 28 30 31 32 34 35 38 40 42 44 46 48 50 51 52 53 53 53 53 53 53 54 54 55 55 54 54 53 53 53 52 51 51 52 54 55
23 23 23 25 25 24 22 18 23 26 26 26 27 29 32 35 37 40 42 44 46 48 50 52 53 55 56 56 57 57 56 56 55 55 55 55 55 54 54 54 54 53 53 52 51 52 53 54 55
22 22 21 22 22 19 17 18 23 25 28 30 32 35 38 41 43 45 47 49 51 53 53 53 54 55 56 57 58 58 58 57 57 56 55 54 54 54 54 53 53 52 52 51 51 52 53 54 55
21 20 19 19 20 18 17 22 27 29 32 36 40 43 45 46 48 50 51 53 53 54 54 54 54 55 56 57 58 59 59 58 57 56 55 55 55 54 53 53 52 52 51 51 51 51 52 53 53
19 18 18 18 20 22 25 30 35 38 41 44 47 49 50 50 51 52 52 53 53 53 54 54 54 55 56 57 58 59 59 59 58 57 56 55 55 55 54 53 53 53 52 52 52 52 52 51 51
18 20 21 23 27 29 33 40 44 47 49 52 53 53 54 55 56 56 56 56 57 58 58 59 59 59 59 60 61 61 61 61 60 58 57 57 56 55 55 55 54 54 53 52 52 53 52 52 51
24 26 29 31 34 37 41 45 49 53 56 56 57 57 58 58 58 59 61 63 65 66 67 67 68 67 67 65 64 64 64 63 62 60 59 58 57 56 55 54 53 53 51 51 51 52 53 53 52
29 31 34 36 39 42 45 49 54 57 58 58 58 59 60 62 65 67 70 72 74 75 75 75 75 74 72 69 67 66 65 64 63 61 59 57 56 55 53 52 51 50 49 49 50 51 53 53 53
33 36 39 42 45 48 50 54 57 58 58 59 61 64 67 71 74 77 79 80 80 80 80 79 78 75 72 69 67 65 64 64 63 60 57 54 52 51 50 50 49 48 48 48 50 51 52 52 52
37 40 43 47 50 53 55 57 59 59 62 64 68 72 76 79 82 83 83 83 83 82 80 78 74 71 68 65 63 61 61 60 58 55 52 49 47 47 47 48 47 47 47 48 49 50 51 51 51
43 46 48 51 54 54 54 56 60 63 66 71 76 79 81 83 84 85 84 82 80 77 73 70 66 63 60 59 57 55 54 55 53 51 50 48 48 48 47 47 46 46 46 47 48 49 49 49 48
46 48 50 52 54 55 55 61 66 68 73 76 80 82 83 84 84 82 80 76 71 67 63 60 57 55 52 52 52 51 52 54 53 51 49 47 46 47 48 48 47 45 44 44 45 46 47 46 46
49 50 51 52 55 59 62 63 70 73 77 81 82 82 81 79 75 72 69 65 61 57 54 52 51 50 49 49 51 51 53 52 50 49 47 45 44 45 46 47 47 46 44 44 44 45 45 44 43
50 51 52 54 58 62 66 71 74 76 79 79 77 75 71 66 63 62 62 61 57 53 50 48 48 47 47 48 51 53 53 52 51 50 48 45 44 44 45 46 47 45 44 44 43 43 43 42 40
Wind_Direction
237 229 224 223 221 219 219 218 220 224 228 230 231 234 238 243 248 254 260 264 269 273 275 278 281 281 278 273 271 272 271 268 265 265 266 268 271 274 276 277 279 283 287 289 290 293 299 298 289
235 226 219 216 215 209 213 217 222 228 231 231 234 238 243 249 254 260 264 269 273 276 278 280 280 278 274 273 272 272 273 273 270 267 266 267 270 271 273 275 278 282 286 289 290 294 298 296 286
231 222 210 208 206 206 212 220 227 232 234 236 239 245 250 255 258 263 267 272 275 278 279 279 278 276 275 276 275 274 274 275 275 273 271 271 271 272 273 275 278 281 285 288 290 292 295 293 284
225 217 212 208 208 213 218 225 233 240 244 247 250 253 257 261 266 270 273 276 278 279 278 277 279 280 280 280 280 279 278 277 275 275 275 275 275 275 275 276 278 280 283 285 286 287 287 286 281
236 228 218 217 219 222 226 233 242 249 252 255 258 260 263 267 271 275 278 279 279 278 278 278 279 279 280 279 279 279 278 277 276 274 273 273 274 275 276 276 277 278 279 280 279 279 278 276 274
244 242 240 238 237 238 238 243 250 255 258 260 263 264 265 268 272 274 275 275 275 275 276 277 278 278 278 278 278 277 276 275 274 274 273 273 272 273 274 274 274 274 274 273 271 271 270 269 268
251 251 250 249 247 248 249 252 257 261 263 263 263 264 265 266 267 268 271 273 275 276 277 278 279 280 280 279 278 276 275 274 272 270 270 270 271 271 271 271 271 270 268 267 266 266 266 266 264
259 260 259 257 256 257 260 262 264 266 266 267 266 263 263 268 269 270 271 274 276 279 280 280 281 281 280 278 276 274 272 271 270 269 268 268 268 268 268 268 269 268 266 265 265 266 267 267 266
262 262 261 262 264 265 266 268 268 270 273 273 272 271 270 271 270 270 270 271 273 274 276 277 278 278 277 275 273 272 270 269 269 268 268 268 267 267 266 265 265 265 265 265 266 267 268 268 269
267 266 267 269 270 272 272 272 272 273 275 273 272 274 275 272 270 269 269 269 270 271 273 274 275 275 274 272 271 270 269 269 268 268 268 267 266 266 265 265 264 263 264 264 265 266 267 268 269
272 272 274 273 272 272 273 273 272 270 267 268 274 278 277 275 275 274 273 273 273 274 274 275 276 275 274 274 273 272 271 270 269 268 268 267 265 265 265 265 266 266 266 267 267 267 268 268 268
275 275 276 276 274 270 269 270 271 268 263 270 277 276 275 275 276 275 275 276 277 279 280 280 279 279 279 279 278 277 275 274 273 271 270 269 268 268 267 267 268 268 268 269 269 269 269 269 269
286 285 284 281 279 275 268 265 263 264 269 273 274 273 272 272 272 272 274 276 280 284 286 287 286 286 285 284 283 282 281 280 279 278 276 275 273 272 271 270 270 270 270 270 270 271 270 270 269
297 293 290 285 282 277 271 269 268 268 270 272 274 273 273 274 276 278 279 283 285 288 289 289 289 289 288 287 286 286 285 284 283 282 281 281 280 278 277 275 273 272 271 270 270 270 271 270 269
296 293 290 287 283 280 279 284 281 276 275 275 275 276 278 280 282 283 285 288 290 291 290 290 289 289 288 287 286 286 285 284 283 282 282 282 281 281 281 279 278 276 275 273 271 270 270 269 268
295 292 290 288 288 287 286 290 286 281 282 281 281 282 283 284 284 286 288 290 290 289 289 288 288 287 286 285 284 283 282 282 282 281 281 281 281 281 281 280 279 278 277 275 274 272 270 268 266
293 291 290 289 290 290 289 286 281 283 286 285 285 286 287 288 288 289 290 290 290 289 288 287 286 285 285 284 282 281 280 280 280 280 279 279 279 280 280 279 278 277 276 275 273 273 271 269 266
293 290 289 288 290 290 289 285 280 283 286 288 289 290 290 290 290 291 291 291 291 290 288 287 286 286 285 284 283 282 281 280 279 279 278 278 277 277 278 278 277 276 275 273 272 272 270 268 266
296 294 291 289 289 287 285 280 279 282 285 288 289 290 291 292 292 293 292 292 291 291 289 288 286 285 284 283 283 282 281 280 279 279 277 277 276 276 276 275 275 274 273 271 269 269 268 265 264
297 296 294 292 290 287 283 284 285 286 288 290 292 295 296 296 296 295 294 294 294 292 291 289 287 285 283 282 281 281 280 279 279 278 277 276 276 276 275 274 272 272 271 269 267 266 265 263 261
300 297 294 290 288 289 290 291 291 291 292 294 296 298 299 299 299 299 298 297 297 295 294 292 289 287 285 283 282 281 280 279 278 277 276 275 274 274 273 272 271 271 270 268 266 264 262 259 257
301 299 297 294 293 292 295 298 299 298 299 301 303 303 303 303 302 302 302 302 301 300 298 296 293 291 288 286 283 282 280 278 277 275 274 272 271 270 270 270 270 271 269 267 264 261 258 255 252
302 302 300 299 298 299 300 301 302 303 305 307 307 306 304 303 302 302 302 302 301 300 299 297 295 293 290 288 284 281 279 277 275 273 271 269 268 268 268 269 270 269 267 264 262 258 254 251 248
308 306 304 303 302 302 303 306 305 307 309 308 306 304 303 302 302 302 302 301 300 299 297 295 293 291 289 286 282 279 276 274 272 270 269 268 267 267 267 267 267 267 265 262 259 256 253 249 247
310 309 308 306 306 306 307 308 308 308 308 308 307 305 303 303 302 302 302 301 299 297 295 292 290 288 285 282 278 274 271 269 268 267 268 267 267 266 265 265 266 265 264 263 260 256 253 249 246
311 311 311 310 309 309 310 311 310 309 309 309 307 305 303 303 303 302 301 299 296 295 293 291 288 285 281 276 272 269 266 265 265 265 266 266 266 265 265 266 267 267 267 266 263 258 252 248 244
315 315 314 313 311 311 311 311 307 308 309 308 306 304 303 302 301 299 298 297 296 295 293 290 286 281 276 271 267 264 261 260 260 261 262 264 267 267 268 268 269 270 269 267 263 258 252 246 242
315 316 315 315 314 312 311 309 307 309 308 306 304 303 302 301 301 300 300 299 298 296 293 289 284 278 271 265 261 258 257 257 258 261 264 268 269 270 271 271 271 271 270 268 264 257 249 242 239
317 316 315 314 312 311 310 309 309 309 307 305 305 305 305 305 305 303 302 302 300 298 295 290 285 279 270 262 257 253 254 256 258 262 265 268 270 272 273 272 271 271 270 269 264 256 246 240 238
316 316 315 313 312 311 310 310 309 308 307 307 307 307 307 307 306 306 305 304 302 299 296 292 287 283 275 265 256 252 251 254 257 259 263 266 269 270 272 272 271 271 270 268 263 255 245 239 237
Height
5852 5853 5854 5856 5858 5859 5860 5861 5862 5864 5865 5865 5866 5866 5866 5866 5866 5867 5865 5863 5862 5862 5861 5860 5858 5857 5856 5855 5854 5854 5854 5853 5853 5853 5852 5852 5851 5851 5851 5850 5850 5850 5849 5848 5847 5846 5846 5845 5844
5851 5852 5853 5855 5856 5857 5858 5859 5860 5861 5861 5861 5861 5861 5861 5861 5861 5861 5860 5859 5858 5858 5857 5855 5854 5853 5852 5851 5851 5850 5850 5849 5849 5849 5848 5848 5848 5847 5847 5846 5846 5845 5845 5844 5843 5842 5841 5841 5840
5850 5850 5852 5853 5853 5855 5855 5856 5857 5857 5857 5858 5858 5858 5857 5857 5857 5856 5855 5855 5854 5853 5852 5851 5850 5849 5848 5848 5847 5846 5846 5845 5845 5845 5844 5844 5843 5843 5843 5842 5841 5841 5840 5840 5839 5838 5837 5837 5836
5849 5850 5851 5852 5851 5852 5853 5854 5854 5855 5855 5855 5855 5854 5853 5853 5853 5852 5851 5851 5850 5849 5848 5847 5846 5846 5845 5844 5843 5843 5842 5841 5840 5840 5839 5839 5839 5838 5838 5837 5837 5836 5836 5835 5835 5834 5834 5833 5833
5848 5849 5850 5850 5850 5850 5851 5851 5851 5852 5852 5852 5852 5850 5849 5849 5848 5848 5847 5847 5846 5845 5844 5843 5842 5841 5840 5839 5839 5838 5837 5836 5835 5835 5834 5834 5833 5833 5833 5832 5832 5831 5831 5830 5830 5830 5829 5829 5829
5846 5847 5848 5847 5848 5848 5848 5848 5848 5848 5848 5848 5847 5846 5845 5845 5844 5843 5842 5841 5841 5840 5839 5838 5837 5836 5835 5834 5833 5832 5832 5831 5830 5829 5829 5828 5828 5827 5827 5827 5826 5826 5826 5825 5825 5825 5825 5825 5825
5845 5844 5844 5845 5845 5845 5845 5844 5844 5844 5844 5843 5843 5842 5840 5840 5839 5838 5837 5836 5835 5834 5834 5832 5831 5830 5829 5828 5827 5826 5825 5825 5824 5823 5823 5823 5822 5822 5821 5821 5821 5821 5820 5820 5820 5820 5820 5820 5821
5841 5842 5841 5841 5842 5842 5841 5840 5840 5839 5839 5838 5838 5837 5836 5835 5834 5833 5832 5831 5830 5829 5828 5827 5825 5824 5823 5821 5821 5820 5819 5819 5818 5817 5817 5817 5816 5816 5816 5816 5815 5815 5815 5815 5815 5815 5815 5815 5815
5838 5840 5838 5838 5838 5838 5837 5836 5836 5835 5835 5833 5832 5831 5831 5830 5828 5827 5826 5825 5824 5823 5822 5821 5819 5818 5816 5815 5815 5814 5813 5813 5812 5812 5811 5811 5811 5811 5811 5810 5810 5810 5810 5810 5810 5810 5809 5809 5809
5835 5835 5834 5834 5834 5833 5833 5832 5832 5831 5830 5827 5826 5825 5824 5823 5822 5821 5820 5819 5818 5817 5816 5815 5814 5813 5811 5810 5809 5808 5808 5807 5807 5806 5806 5806 5805 5805 5805 5805 5804 5804 5804 5803 5803 5803 5803 5803 5802
5831 5831 5830 5830 5829 5829 5828 5828 5827 5826 5825 5822 5821 5820 5819 5817 5817 5815 5814 5813 5812 5811 5810 5810 5809 5807 5806 5805 5804 5803 5802 5802 5801 5800 5800 5799 5799 5798 5798 5797 5797 5797 5796 5796 5796 5795 5795 5795 5795
5828 5827 5826 5825 5825 5825 5824 5823 5822 5821 5819 5818 5817 5815 5814 5812 5811 5810 5809 5808 5807 5806 5805 5804 5803 5801 5800 5799 5798 5797 5796 5795 5794 5793 5793 5792 5791 5790 5790 5789 5788 5788 5787 5787 5786 5786 5786 5786 5786
5825 5824 5823 5822 5821 5821 5820 5819 5818 5816 5815 5814 5812 5810 5809 5807 5806 5805 5803 5802 5801 5800 5799 5798 5796 5795 5793 5792 5791 5789 5788 5787 5786 5785 5784 5783 5782 5781 5780 5779 5778 5778 5778 5777 5776 5776 5775 5775 5775
5823 5821 5820 5819 5818 5818 5817 5816 5814 5813 5810 5808 5806 5804 5803 5802 5801 5799 5798 5797 5796 5794 5793 5791 5789 5788 5786 5784 5783 5781 5779 5778 5777 5775 5774 5773 5772 5771 5770 5769 5768 5767 5766 5766 5765 5765 5764 5764 5764
5820 5819 5817 5815 5815 5815 5814 5813 5809 5807 5805 5803 5801 5799 5798 5797 5796 5794 5792 5791 5789 5788 5785 5783 5781 5779 5778 5776 5774 5772 5769 5768 5766 5764 5763 5762 5760 5759 5758 5757 5756 5755 5754 5754 5753 5753 5753 5752 5752
5817 5816 5814 5811 5810 5810 5812 5810 5803 5799 5799 5798 5796 5794 5793 5791 5789 5787 5786 5784 5782 5779 5776 5774 5771 5769 5767 5765 5763 5760 5758 5756 5754 5752 5750 5749 5747 5746 5745 5744 5743 5742 5741 5740 5740 5740 5740 5739 5739
5812 5811 5809 5806 5805 5804 5804 5804 5798 5793 5793 5792 5790 5788 5786 5784 5782 5781 5778 5776 5773 5770 5766 5763 5759 5756 5753 5751 5748 5746 5744 5742 5740 5738 5736 5735 5734 5732 5731 5730 5729 5728 5727 5726 5726 5726 5726 5725 5726
5807 5805 5803 5801 5800 5799 5798 5796 5791 5788 5787 5785 5784 5782 5780 5777 5775 5772 5769 5766 5762 5758 5754 5750 5746 5742 5738 5735 5732 5730 5728 5726 5724 5722 5721 5720 5718 5717 5715 5714 5713 5713 5712 5711 5711 5711 5711 5711 5711
5801 5799 5798 5796 5794 5794 5792 5789 5785 5783 5781 5779 5778 5775 5772 5769 5765 5761 5757 5753 5748 5744 5740 5735 5731 5727 5723 5719 5716 5713 5711 5709 5707 5705 5704 5702 5701 5700 5699 5698 5697 5697 5696 5696 5696 5695 5696 5696 5697
5796 5794 5793 5791 5788 5787 5787 5783 5779 5777 5775 5772 5769 5766 5762 5757 5753 5748 5743 5738 5733 5729 5724 5720 5716 5711 5707 5703 5700 5697 5695 5692 5691 5689 5687 5685 5684 5683 5682 5681 5681 5681 5681 5680 5680 5680 5681 5682 5683
5790 5789 5788 5786 5784 5782 5780 5777 5771 5769 5766 5763 5758 5753 5749 5744 5739 5733 5728 5722 5717 5712 5708 5703 5699 5695 5691 5687 5684 5681 5678 5676 5674 5672 5671 5669 5667 5666 5666 5665 5665 5665 5665 5665 5665 5665 5666 5667 5668
5786 5785 5783 5781 5778 5776 5773 5767 5760 5757 5754 5749 5743 5738 5732 5727 5721 5716 5710 5705 5700 5695 5691 5686 5682 5678 5674 5670 5666 5663 5660 5658 5657 5655 5653 5652 5651 5650 5650 5650 5649 5649 5649 5649 5650 5650 5651 5652 5654
5782 5780 5778 5774 5770 5767 5764 5758 5752 5745 5740 5734 5729 5723 5717 5711 5705 5699 5693 5688 5682 5677 5672 5667 5663 5659 5654 5651 5647 5644 5641 5639 5638 5637 5635 5635 5634 5634 5634 5634 5634 5634 5634 5634 5634 5635 5636 5638 5640
5777 5775 5771 5767 5763 5760 5754 5748 5742 5735 5727 5722 5716 5709 5703 5696 5689 5682 5675 5669 5663 5657 5651 5647 5643 5639 5634 5631 5627 5624 5622 5620 5619 5618 5618 5618 5618 5618 5618 5618 5619 5619 5619 5619 5619 5620 5621 5623 5625
5772 5768 5764 5758 5754 5750 5744 5736 5730 5723 5715 5708 5702 5695 5687 5679 5671 5663 5656 5648 5641 5635 5628 5623 5619 5616 5612 5609 5607 5604 5602 5601 5600 5600 5601 5601 5602 5602 5602 5603 5603 5604 5604 5604 5604 5605 5606 5608 5610
5765 5761 5756 5750 5745 5740 5733 5725 5717 5709 5701 5693 5685 5677 5669 5661 5652 5643 5634 5626 5618 5611 5605 5599 5595 5592 5589 5586 5585 5584 5583 5583 5584 5585 5585 5585 5586 5587 5587 5588 5588 5589 5589 5588 5588 5589 5591 5593 5596
5757 5752 5746 5739 5733 5728 5723 5714 5703 5696 5686 5678 5669 5660 5651 5643 5634 5623 5614 5604 5596 5589 5582 5576 5572 5569 5567 5566 5565 5566 5567 5568 5569 5569 5570 5570 5571 5572 5572 5573 5574 5574 5574 5574 5573 5574 5575 5578 5582
5749 5742 5735 5727 5720 5715 5713 5703 5690 5681 5672 5662 5652 5642 5633 5622 5611 5600 5590 5582 5575 5567 5561 5556 5551 5548 5548 5548 5549 5551 5553 5554 5554 5555 5556 5557 5558 5558 5558 5558 5559 5560 5560 5560 5559 5560 5561 5564 5568
5738 5732 5724 5717 5709 5701 5697 5695 5678 5668 5654 5643 5633 5620 5609 5599 5589 5579 5570 5563 5556 5549 5543 5538 5534 5531 5530 5531 5532 5535 5537 5539 5540 5541 5542 5544 5544 5544 5544 5544 5545 5545 5546 5546 5546 5547 5548 5551 5555
5728 5721 5714 5707 5699 5688 5679 5680 5661 5652 5638 5625 5614 5603 5593 5583 5573 5563 5554 5546 5540 5534 5528 5523 5518 5515 5513 5513 5515 5517 5520 5522 5525 5527 5529 5530 5531 5531 5531 5530 5531 5531 5532 5533 5533 5534 5536 5539 5543